Location: Fatehalanka
(16.3139°N, 80.8379°E)
Time: 11:19:44
(UTC+00:00)

Centaur AC-69 - Pass Details

Date: 14 May 2026
Orbit: 359 x 29649 km, 17.6° (Epoch: 5 June)

Event Time Altitude Azimuth Distance (km) Brightness Sun altitude
Exits shadow 22:38:45 56° 208° (SSW) 625 2.7 -20.1°
Maximum altitude 22:38:52 57° 197° (SSW) 610 2.7 -20.1°
Drops below altitude 10° 22:41:18 10° 116° (ESE) 1,379 5.3 -19.6°
Sets 22:42:47 0° 110° (ESE) 2,155 6.5 -19.3°
